Location: Prescott
(34.5400°N, 112.4680°W)
Time: 12:13:30
(UTC-07:00)

Amateur Radio Satellites - All Passes

Search period start: 01 July 2015 11:43
Search period end: 02 July 2015 11:43
Location: Prescott, 34.5400°N, 112.4680°W

Satellite Date Start Highest point End Downlink Frequencies (MHz)
Time Altitude Azimuth
ESTCUBE 1 01 Jul 11:43:40 11:48:13 73° 101° (ESE) 11:52:44 437.505/2401.250
Cosmos 2499 01 Jul 11:50:15 11:57:05 47° 282° (WNW) 12:03:49 435.465 / 435.565
CUBEBUG 1 01 Jul 11:53:38 11:58:01 80° 102° (ESE) 12:02:21 437.445
QB50P2 01 Jul 12:00:26 12:03:10 16° 267° (W) 12:05:43 145.880/145.840
BUGSAT 1 01 Jul 12:01:20 12:04:52 24° 264° (W) 12:08:19 437.445
POPSAT HIP 1 01 Jul 12:02:07 12:04:49 16° 267° (W) 12:07:21 437.405
HUMSAT D 01 Jul 12:03:49 12:06:29 16° 290° (WNW) 12:09:00 437.325/437.525
VELOX 1 01 Jul 12:15:25 12:19:18 30° 288° (WNW) 12:23:06 145.980
Oscar 19 01 Jul 12:17:54 12:21:49 23° 69° (ENE) 12:25:52 437.125/150
PHONESAT 2.4 01 Jul 12:24:58 12:28:04 29° 356° (N) 12:31:10 2401.200-2431.200
TISAT 1 01 Jul 12:29:09 12:32:55 33° 97° (E) 12:36:42 437.305
VERMONT LUNAR 01 Jul 12:57:33 13:00:39 50° 18° (NNE) 13:03:47 437.305
YUBILEINY 01 Jul 12:58:08 13:01:10 13° 61° (ENE) 13:04:59 435.215
SPROUT 01 Jul 13:09:13 13:13:20 47° 285° (WNW) 13:17:26 437.525
SWISSCUBE 01 Jul 13:09:47 13:12:39 16° 92° (E) 13:15:43 437.505
ITUPSAT 1 01 Jul 13:13:26 13:16:13 16° 92° (E) 13:19:14 437.325
RS-15 01 Jul 13:20:20 13:31:31 48° 250° (WSW) 13:42:49 29.354- 29.394
Gurwin Techsat 1B 01 Jul 13:34:06 13:38:53 36° 71° (ENE) 13:43:45 435.225
Oscar 19 01 Jul 13:56:17 14:01:00 35° 263° (W) 14:05:40 437.125/150
ITAMSAT 1 01 Jul 13:59:39 14:04:46 64° 75° (ENE) 14:09:59 435.822/435.867
PHONESAT 2.4 01 Jul 14:03:15 14:06:34 40° 13° (NNE) 14:09:52 2401.200-2431.200
TISAT 1 01 Jul 14:05:43 14:08:28 17° 290° (WNW) 14:11:02 437.305
BEESAT 01 Jul 14:30:54 14:35:42 70° 284° (WNW) 14:40:27 436.000
VERMONT LUNAR 01 Jul 14:34:41 14:37:31 28° 212° (SSW) 14:40:20 437.305
SWISSCUBE 01 Jul 14:46:11 14:50:45 43° 287° (WNW) 14:55:15 437.505
ITUPSAT 1 01 Jul 14:49:47 14:54:23 44° 287° (WNW) 14:58:55 437.325
PCSat 01 Jul 14:50:04 14:52:59 15° 106° (ESE) 14:56:11 145.827
YUBILEINY 01 Jul 14:50:58 14:59:45 78° 83° (E) 15:08:34 435.215
AO-7 01 Jul 14:54:19 15:02:02 46° 66° (ENE) 15:09:55 29.400- 29.500
HORYU 2 01 Jul 14:58:00 15:01:50 31° 72° (ENE) 15:05:46 437.375
AIST 1 01 Jul 15:01:39 15:04:48 20° 89° (E) 15:08:06
KKS-1 01 Jul 15:02:38 15:06:46 40° 98° (E) 15:10:57 437.445
Cosmos 2491 01 Jul 15:05:56 15:14:28 58° 92° (E) 15:23:03 435.465 / 435.565
Gurwin Techsat 1B 01 Jul 15:14:44 15:18:58 23° 266° (W) 15:23:05 435.225
JAS-2 01 Jul 15:21:39 15:26:52 89° 255° (WSW) 15:32:08 435.910
ISS 01 Jul 15:28:27 15:31:14 26° 35° (NE) 15:34:01 145.825
Cosmos 2504 01 Jul 15:32:43 15:35:36 13° 65° (ENE) 15:39:12 435.465 / 435.565
PHONESAT 2.4 01 Jul 15:41:15 15:44:40 52° 209° (SSW) 15:48:05 2401.200-2431.200
ITAMSAT 1 01 Jul 15:42:30 15:44:49 12° 270° (W) 15:46:47 435.822/435.867
SO-50 01 Jul 16:02:02 16:04:24 14° 109° (ESE) 16:07:03 436.795
STARS 01 Jul 16:02:51 16:07:11 66° 284° (WNW) 16:11:30 437.465
JUGNU 01 Jul 16:27:43 16:29:20 11° 165° (SSE) 16:31:05 437.505
PCSat 01 Jul 16:30:38 16:35:58 58° 299° (WNW) 16:41:19 145.827
MOZHAYETS 4 01 Jul 16:32:30 16:36:49 38° 97° (E) 16:41:09
HORYU 2 01 Jul 16:35:20 16:38:33 19° 266° (W) 16:41:39 437.375
AIST 1 01 Jul 16:38:34 16:42:19 26° 284° (WNW) 16:46:01
BEESAT 3 01 Jul 16:38:53 16:42:37 35° 56° (NE) 16:46:19 437.485
KKS-1 01 Jul 16:40:24 16:43:07 16° 292° (WNW) 16:45:40 437.445
Cubesat XI-IV 01 Jul 16:46:18 16:49:04 15° 65° (ENE) 16:52:08 437.490
BEESAT 2 01 Jul 16:46:26 16:50:09 34° 55° (NE) 16:53:51 435.950
AO-7 01 Jul 16:47:27 16:54:58 36° 263° (W) 17:02:23 29.400- 29.500
YUBILEINY 01 Jul 16:50:08 16:55:45 18° 277° (W) 17:00:50 435.215
Cosmos 2491 01 Jul 17:04:34 17:11:53 27° 290° (WNW) 17:18:54 435.465 / 435.565
ISS 01 Jul 17:04:53 17:07:34 23° 230° (SW) 17:10:11 145.825
Cosmos 2504 01 Jul 17:22:27 17:30:12 84° 83° (E) 17:38:34 435.465 / 435.565
SO-50 01 Jul 17:39:56 17:44:31 53° 303° (WNW) 17:49:16 436.795
AIST 2 01 Jul 17:43:28 17:47:19 34° 55° (NE) 17:51:07 435.215
CUTE-I 01 Jul 17:50:12 17:55:28 62° 75° (ENE) 18:00:48 437.470
O/OREOS (USA 219) 01 Jul 17:57:21 18:01:53 75° 70° (ENE) 18:06:25 437.305
MOZHAYETS 4 01 Jul 18:10:35 18:13:47 18° 291° (WNW) 18:16:49
JUGNU 01 Jul 18:13:47 18:17:40 18° 174° (S) 18:21:35 437.505
BEESAT 3 01 Jul 18:17:51 18:20:18 15° 250° (WSW) 18:22:34 437.485
Cubesat XI-IV 01 Jul 18:23:25 18:28:42 62° 259° (WSW) 18:34:03 437.490
BEESAT 2 01 Jul 18:25:20 18:27:58 16° 250° (WSW) 18:30:26 435.950
CUBESAT XI-V 01 Jul 18:27:03 18:31:37 52° 99° (E) 18:36:10 437.345
PRISM 01 Jul 18:28:57 18:30:56 13° 92° (E) 18:33:08 437.425
GOMX 1 01 Jul 18:38:07 18:39:13 11° 67° (ENE) 18:40:39 467.674
CUSAT 1 01 Jul 18:40:11 18:41:42 14° 74° (ENE) 18:43:17 437.405
HO-68 01 Jul 18:42:23 18:46:01 15° 60° (ENE) 18:50:03 435.675
BRITE-PL 01 Jul 18:43:10 18:47:23 23° 71° (ENE) 18:51:35 437.365/2234.400
SRMSAT 01 Jul 19:00:32 19:03:37 15° 169° (S) 19:06:47 437.500
Cosmos 2504 01 Jul 19:18:42 19:22:57 15° 276° (W) 19:26:44 435.465 / 435.565
DANDE 01 Jul 19:21:24 19:24:07 39° 78° (ENE) 19:26:35 436.750
AIST 2 01 Jul 19:22:51 19:25:38 17° 250° (WSW) 19:28:14 435.215
GONETS M04 01 Jul 19:27:16 19:34:29 30° 71° (ENE) 19:41:56
CUTE-I 01 Jul 19:33:21 19:36:04 13° 270° (W) 19:38:26 437.470
DOVE 4 01 Jul 19:34:28 19:38:29 26° 72° (ENE) 19:42:27 437.250
CUTE 1.7 + AOD 2 01 Jul 19:42:47 19:46:05 23° 72° (ENE) 19:49:29 437.475
STRAND 1 01 Jul 19:43:23 19:48:33 78° 285° (WNW) 19:53:40 437.568
COMPASS 1 01 Jul 19:44:01 19:46:18 15° 69° (ENE) 19:48:46 437.405
CANX-2 01 Jul 19:45:22 19:48:56 28° 72° (ENE) 19:52:34 2200.000
JUGNU 01 Jul 20:02:03 20:06:02 18° 184° (S) 20:09:58 437.505
PRISM 01 Jul 20:02:39 20:06:36 39° 286° (WNW) 20:10:29 437.425
CUBESAT XI-V 01 Jul 20:06:14 20:08:39 14° 293° (WNW) 20:10:50 437.345
GOMX 1 01 Jul 20:11:33 20:16:54 78° 258° (WSW) 20:21:56 467.674
CUBEBUG 2 01 Jul 20:17:24 20:19:25 14° 69° (ENE) 20:21:38 437.445
BRITE-PL 01 Jul 20:20:24 20:25:41 41° 262° (W) 20:30:42 437.365/2234.400
HO-68 01 Jul 20:25:47 20:32:57 89° 253° (WSW) 20:40:09 435.675
ZACube-1 01 Jul 20:33:46 20:35:16 12° 69° (ENE) 20:36:59 437.345
SEEDS 01 Jul 20:35:10 20:39:19 84° 78° (ENE) 20:43:31 437.485
CINEMA 3 01 Jul 20:42:24 20:46:59 62° 76° (ENE) 20:51:21 145.822/145.860
Oscar 11 01 Jul 20:47:03 20:50:49 31° 73° (ENE) 20:54:39 145.826/435.025
AUBIESAT-1 01 Jul 20:47:31 20:51:27 37° 103° (ESE) 20:55:39 437.475
SRMSAT 01 Jul 20:48:04 20:52:07 19° 179° (S) 20:56:10 437.500
AAUSAT CUBESAT 2 01 Jul 20:54:05 20:58:12 87° 257° (WSW) 21:02:22 437.432
FUNcube-1 01 Jul 21:08:57 21:12:39 30° 73° (ENE) 21:16:22 145.935
DOVE 4 01 Jul 21:11:48 21:16:10 29° 264° (W) 21:20:16 437.250
UWE-3 01 Jul 21:12:42 21:16:50 47° 75° (ENE) 21:20:54 435.000/436.395/437.385
HUMSAT D 01 Jul 21:16:53 21:19:14 15° 70° (ENE) 21:21:45 437.325/437.525
COMPASS 1 01 Jul 21:17:53 21:21:42 35° 263° (W) 21:25:32 437.405
CUTE 1.7 + AOD 2 01 Jul 21:18:34 21:21:57 23° 266° (W) 21:25:15 437.475
M-CUBED/EXP-1 PRIME 01 Jul 21:18:34 21:22:46 79° 288° (WNW) 21:27:17 437.505
CANX-2 01 Jul 21:21:50 21:24:53 19° 267° (W) 21:27:50 2200.000
GONETS M04 01 Jul 21:23:23 21:31:43 52° 269° (W) 21:39:57
DELFI C3 01 Jul 21:30:50 21:34:48 74° 77° (ENE) 21:38:49 145.870
VELOX 1 01 Jul 21:35:16 21:37:02 12° 67° (ENE) 21:39:02 145.980
Cosmos 2499 01 Jul 21:43:33 21:51:02 48° 78° (ENE) 21:59:07 435.465 / 435.565
CUBEBUG 2 01 Jul 21:51:38 21:55:50 43° 261° (W) 21:59:54 437.445
JUGNU 01 Jul 21:52:08 21:54:21 12° 194° (SSW) 21:56:28 437.505
DX 1 01 Jul 21:53:50 21:57:53 39° 73° (ENE) 22:02:00 434.975-435.025
50 SAT 01 Jul 21:55:51 21:58:42 21° 72° (ENE) 22:01:38 437.505
ZACube-1 01 Jul 22:07:10 22:11:17 47° 261° (W) 22:15:21 437.345
ANTELSAT 01 Jul 22:14:23 22:17:39 21° 94° (E) 22:21:05 437.575/2403.000
AISAT 01 Jul 22:18:42 22:22:53 41° 73° (ENE) 22:27:06 437.250
HO-68 01 Jul 22:18:48 22:21:43 12° 272° (W) 22:24:03 435.675
UKube-1 01 Jul 22:19:05 22:23:24 73° 76° (ENE) 22:27:45 .
AUBIESAT-1 01 Jul 22:23:05 22:25:59 18° 294° (WNW) 22:28:52 437.475
Oscar 11 01 Jul 22:24:06 22:27:05 18° 267° (W) 22:29:55 145.826/435.025
TIGRISAT 01 Jul 22:27:43 22:31:29 28° 96° (E) 22:35:22 435.000
SRMSAT 01 Jul 22:37:06 22:40:36 16° 189° (S) 22:44:04 437.500
ESTCUBE 1 01 Jul 22:39:48 22:44:03 42° 73° (ENE) 22:48:22 437.505/2401.250
FUNcube-1 01 Jul 22:46:08 22:49:04 17° 267° (W) 22:51:48 145.935
CUBEBUG 1 01 Jul 22:46:09 22:50:19 42° 74° (ENE) 22:54:32 437.445
HUMSAT D 01 Jul 22:50:58 22:54:44 34° 263° (W) 22:58:28 437.325/437.525
UWE-3 01 Jul 22:52:05 22:53:39 11° 269° (W) 22:54:57 435.000/436.395/437.385
QB50P1 01 Jul 22:53:16 22:56:29 22° 95° (E) 22:59:48 145.935-145.965
UNISAT 6 01 Jul 23:05:40 23:10:04 86° 99° (E) 23:14:33 437.425
NANOSAT C BR1 01 Jul 23:08:15 23:12:02 32° 97° (E) 23:15:49 145.865
VELOX 1 01 Jul 23:08:48 23:13:11 53° 260° (W) 23:17:34 145.980
DUCHIFAT 1 01 Jul 23:16:08 23:20:04 40° 98° (E) 23:24:01 145.980
POLYITAN 1 01 Jul 23:17:16 23:21:17 44° 99° (E) 23:25:20 437.675
TISAT 1 01 Jul 23:18:50 23:21:29 17° 69° (ENE) 23:24:17 437.305
50 SAT 01 Jul 23:30:16 23:33:15 21° 265° (W) 23:36:09 437.505
DX 1 01 Jul 23:31:42 23:34:20 15° 268° (W) 23:36:46 434.975-435.025
Cosmos 2499 01 Jul 23:37:15 23:43:58 30° 272° (W) 23:50:49 435.465 / 435.565
BUGSAT 1 01 Jul 23:46:17 23:50:19 60° 101° (E) 23:54:17 437.445
QB50P2 01 Jul 23:47:20 23:51:33 75° 282° (WNW) 23:55:44 145.880/145.840
POPSAT HIP 1 01 Jul 23:48:50 23:53:03 75° 284° (WNW) 23:57:13 437.405
ANTELSAT 01 Jul 23:50:40 23:54:27 28° 288° (WNW) 23:58:14 437.575/2403.000
AISAT 01 Jul 23:57:00 23:59:41 15° 268° (W) 00:02:09 437.250
SPROUT 01 Jul 23:59:22 00:03:41 81° 77° (ENE) 00:08:01 437.525
TIGRISAT 02 Jul 00:04:47 00:08:06 21° 289° (WNW) 00:11:21 435.000
SWISSCUBE 02 Jul 00:14:03 00:16:11 13° 66° (ENE) 00:18:34 437.505
ITUPSAT 1 02 Jul 00:17:58 00:20:02 13° 66° (ENE) 00:22:22 437.325
ESTCUBE 1 02 Jul 00:18:33 00:21:10 15° 269° (W) 00:23:34 437.505/2401.250
CUBEBUG 1 02 Jul 00:24:24 00:26:55 14° 268° (W) 00:29:12 437.445
QB50P1 02 Jul 00:28:52 00:32:19 24° 289° (WNW) 00:35:41 145.935-145.965
NANOSAT C BR1 02 Jul 00:44:52 00:47:38 17° 291° (WNW) 00:50:14 145.865
TISAT 1 02 Jul 00:53:08 00:57:01 34° 263° (W) 01:00:52 437.305
DUCHIFAT 1 02 Jul 00:53:18 00:55:34 14° 291° (WNW) 00:57:38 145.980
POLYITAN 1 02 Jul 00:54:51 00:56:51 13° 292° (WNW) 00:58:39 437.675
Cosmos 2491 02 Jul 01:21:50 01:28:13 23° 68° (ENE) 01:34:58 435.465 / 435.565
PCSat 02 Jul 01:22:00 01:27:18 52° 60° (ENE) 01:32:34 145.827
RS-15 02 Jul 01:27:51 01:37:28 40° 108° (ESE) 01:47:30 29.354- 29.394
BEESAT 02 Jul 01:33:39 01:38:25 89° 55° (NE) 01:43:14 436.000
SWISSCUBE 02 Jul 01:48:55 01:53:37 56° 260° (W) 01:58:20 437.505
ITUPSAT 1 02 Jul 01:52:48 01:57:29 57° 259° (W) 02:02:14 437.325
Gurwin Techsat 1B 02 Jul 01:54:36 01:58:13 19° 92° (E) 02:02:02 435.225
YUBILEINY 02 Jul 01:55:16 01:59:50 16° 82° (E) 02:04:59 435.215
KKS-1 02 Jul 01:57:48 02:01:21 24° 71° (ENE) 02:05:00 437.445
Oscar 19 02 Jul 02:10:49 02:15:57 76° 284° (WNW) 02:21:04 437.125/150
SO-50 02 Jul 02:14:41 02:19:32 54° 57° (ENE) 02:24:18 436.795
ITAMSAT 1 02 Jul 02:16:32 02:21:04 30° 96° (E) 02:25:39 435.822/435.867
JAS-2 02 Jul 02:34:18 02:38:06 16° 91° (E) 02:42:33 435.910
AIST 1 02 Jul 02:48:39 02:52:54 50° 80° (E) 02:57:07
STARS 02 Jul 02:55:55 03:00:19 69° 75° (ENE) 03:04:42 437.465
AO-7 02 Jul 03:01:51 03:06:24 16° 90° (E) 03:11:32 29.400- 29.500
PCSat 02 Jul 03:06:47 03:10:20 17° 254° (WSW) 03:13:38 145.827
Cosmos 2491 02 Jul 03:17:15 03:25:53 66° 267° (W) 03:34:26 435.465 / 435.565
MOZHAYETS 4 02 Jul 03:31:30 03:35:06 24° 71° (ENE) 03:38:49
Gurwin Techsat 1B 02 Jul 03:33:24 03:38:26 44° 288° (WNW) 03:43:26 435.225
KKS-1 02 Jul 03:34:12 03:37:55 25° 264° (W) 03:41:34 437.445
RS-15 02 Jul 03:39:02 03:49:36 52° 308° (NW) 04:00:25 29.354- 29.394
YUBILEINY 02 Jul 03:47:02 03:55:45 83° 277° (W) 04:04:29 435.215
ITAMSAT 1 02 Jul 03:56:04 04:00:29 28° 291° (WNW) 04:04:48 435.822/435.867
SO-50 02 Jul 03:56:49 03:59:40 15° 251° (WSW) 04:02:15 436.795
JAS-2 02 Jul 04:17:01 04:23:38 77° 284° (WNW) 04:31:02 435.910
HORYU 2 02 Jul 04:28:26 04:32:54 78° 284° (WNW) 04:37:21 437.375
AIST 1 02 Jul 04:29:31 04:30:07 10° 273° (W) 04:30:24
AO-7 02 Jul 04:51:50 05:00:15 85° 288° (WNW) 05:08:36 29.400- 29.500
MOZHAYETS 4 02 Jul 05:08:22 05:12:14 27° 265° (W) 05:16:04
STRAND 1 02 Jul 05:20:59 05:22:07 11° 64° (ENE) 05:23:35 437.568
CUBESAT XI-V 02 Jul 05:27:00 05:31:12 34° 72° (ENE) 05:35:28 437.345
YUBILEINY 02 Jul 05:49:56 05:54:12 13° 298° (WNW) 05:57:46 435.215
Cosmos 2504 02 Jul 05:57:01 06:04:18 79° 95° (E) 06:11:28 435.465 / 435.565
RS-15 02 Jul 05:59:17 06:05:45 16° 338° (NNW) 06:11:55 29.354- 29.394
JAS-2 02 Jul 06:05:50 06:08:06 11° 296° (WNW) 06:09:54 435.910
CUTE-I 02 Jul 06:11:16 06:16:04 33° 97° (E) 06:20:52 437.470
BEESAT 3 02 Jul 06:29:28 06:31:49 15° 110° (ESE) 06:34:20 437.485
O/OREOS (USA 219) 02 Jul 06:29:37 06:31:26 13° 100° (E) 06:33:31 437.305
BEESAT 2 02 Jul 06:38:02 06:40:18 15° 110° (ESE) 06:42:46 435.950
Cubesat XI-IV 02 Jul 06:44:15 06:49:37 72° 101° (E) 06:54:58 437.490
DANDE 02 Jul 06:45:25 06:49:00 15° 91° (E) 06:52:45 436.750
AO-7 02 Jul 06:47:00 06:52:01 17° 304° (NW) 06:56:35 29.400- 29.500
PRISM 02 Jul 06:48:37 06:52:46 90° 87° (E) 06:56:59 437.425
STRAND 1 02 Jul 06:55:36 07:00:43 79° 256° (WSW) 07:05:55 437.568
CUBESAT XI-V 02 Jul 07:05:15 07:08:44 20° 267° (W) 07:12:06 437.345
VERMONT LUNAR 02 Jul 07:07:27 07:09:53 21° 146° (SE) 07:12:23 437.305
AUBIESAT-1 02 Jul 07:33:32 07:36:00 20° 67° (ENE) 07:38:35 437.475
CUSAT 1 02 Jul 07:38:58 07:46:00 57° 97° (E) 07:51:31 437.405
AIST 2 02 Jul 07:39:01 07:41:47 18° 111° (ESE) 07:44:42 435.215
CUTE-I 02 Jul 07:51:34 07:56:01 26° 291° (WNW) 08:00:20 437.470
Cosmos 2504 02 Jul 07:54:46 07:58:40 14° 294° (WNW) 08:02:03 435.465 / 435.565
HO-68 02 Jul 07:58:47 08:03:46 21° 92° (E) 08:09:02 435.675
M-CUBED/EXP-1 PRIME 02 Jul 08:04:29 08:07:45 73° 73° (ENE) 08:11:05 437.505
ISS 02 Jul 08:04:33 08:07:41 51° 134° (SE) 08:10:51 145.825
BEESAT 3 02 Jul 08:05:42 08:09:30 36° 304° (NW) 08:13:18 437.485
O/OREOS (USA 219) 02 Jul 08:06:12 08:10:30 46° 293° (WNW) 08:14:47 437.305
BEESAT 2 02 Jul 08:14:14 08:18:05 38° 304° (WNW) 08:21:57 435.950
GOMX 1 02 Jul 08:17:51 08:21:42 35° 97° (E) 08:25:31 467.674
RS-15 02 Jul 08:20:16 08:25:05 13° 15° (NNE) 08:30:21 29.354- 29.394
GONETS M04 02 Jul 08:23:37 08:31:26 39° 88° (E) 08:39:23
SEEDS 02 Jul 08:23:55 08:26:47 18° 93° (E) 08:29:48 437.485
DANDE 02 Jul 08:24:10 08:32:05 82° 278° (W) 08:38:20 436.750
PHONESAT 2.4 02 Jul 08:25:51 08:28:12 18° 144° (SE) 08:30:39 2401.200-2431.200
Cubesat XI-IV 02 Jul 08:26:43 08:29:11 13° 296° (WNW) 08:31:20 437.490
BRITE-PL 02 Jul 08:29:20 08:33:40 87° 282° (WNW) 08:37:49 437.365/2234.400
AAUSAT CUBESAT 2 02 Jul 08:41:20 08:44:18 19° 93° (E) 08:47:23 437.432
CINEMA 3 02 Jul 08:41:49 08:44:29 17° 93° (E) 08:47:20 145.822/145.860
VERMONT LUNAR 02 Jul 08:43:34 08:46:39 60° 340° (NNW) 08:49:46 437.305
COMPASS 1 02 Jul 09:04:22 09:08:24 44° 98° (E) 09:12:27 437.405
CUTE 1.7 + AOD 2 02 Jul 09:06:05 09:10:23 77° 102° (ESE) 09:14:39 437.475
UWE-3 02 Jul 09:07:53 09:09:21 12° 91° (E) 09:11:05 435.000/436.395/437.385
AUBIESAT-1 02 Jul 09:08:44 09:10:48 15° 262° (W) 09:12:46 437.475
CANX-2 02 Jul 09:09:03 09:13:21 87° 283° (WNW) 09:17:39 2200.000
ANTELSAT 02 Jul 09:11:54 09:13:32 12° 68° (ENE) 09:15:24 437.575/2403.000
DOVE 4 02 Jul 09:13:53 09:18:03 76° 283° (WNW) 09:22:11 437.250
DELFI C3 02 Jul 09:15:07 09:16:56 13° 91° (E) 09:18:57 145.870
AIST 2 02 Jul 09:16:11 09:20:07 35° 304° (NW) 09:24:04 435.215
CUSAT 1 02 Jul 09:23:53 09:28:38 19° 285° (WNW) 09:32:29 437.405
TIGRISAT 02 Jul 09:24:19 09:26:58 17° 70° (ENE) 09:29:47 435.000
ISS 02 Jul 09:42:11 09:44:19 16° 330° (NNW) 09:46:23 145.825
QB50P1 02 Jul 09:44:37 09:45:53 11° 68° (ENE) 09:47:24 145.935-145.965
HO-68 02 Jul 09:44:58 09:52:01 62° 288° (WNW) 09:59:01 435.675
CUBEBUG 2 02 Jul 09:45:49 09:49:51 46° 99° (E) 09:54:00 437.445
GOMX 1 02 Jul 09:57:12 09:59:35 14° 291° (WNW) 10:01:46 467.674
NANOSAT C BR1 02 Jul 09:58:22 10:01:00 17° 70° (ENE) 10:03:47 145.865
SEEDS 02 Jul 09:58:53 10:02:38 30° 287° (WNW) 10:06:20 437.485
ZACube-1 02 Jul 09:59:00 10:02:56 38° 98° (E) 10:06:58 437.345
UNISAT 6 02 Jul 10:01:21 10:05:30 47° 74° (ENE) 10:09:38 437.425
PHONESAT 2.4 02 Jul 10:02:32 10:05:59 79° 339° (NNW) 10:09:26 2401.200-2431.200
DUCHIFAT 1 02 Jul 10:05:46 10:08:48 20° 70° (ENE) 10:11:56 145.980
POLYITAN 1 02 Jul 10:07:26 10:10:40 22° 71° (ENE) 10:14:00 437.675
UKube-1 02 Jul 10:11:26 10:13:58 16° 93° (E) 10:16:40 .
DANDE 02 Jul 10:13:06 10:15:43 12° 291° (WNW) 10:17:37 436.750
Oscar 11 02 Jul 10:13:12 10:17:33 76° 283° (WNW) 10:21:53 145.826/435.025
AAUSAT CUBESAT 2 02 Jul 10:16:17 10:19:55 28° 288° (WNW) 10:23:30 437.432
Cosmos 2499 02 Jul 10:17:07 10:23:31 39° 90° (E) 10:29:59 435.465 / 435.565
CINEMA 3 02 Jul 10:18:06 10:21:47 30° 287° (WNW) 10:25:27 145.822/145.860
GONETS M04 02 Jul 10:20:05 10:28:15 40° 285° (WNW) 10:36:17
VERMONT LUNAR 02 Jul 10:21:12 10:23:55 26° 356° (N) 10:26:41 437.305
RS-15 02 Jul 10:31:53 10:42:26 38° 46° (NE) 10:53:33 29.354- 29.394
BUGSAT 1 02 Jul 10:33:03 10:36:35 27° 72° (ENE) 10:40:12 437.445
FUNcube-1 02 Jul 10:36:04 10:40:17 74° 282° (WNW) 10:44:33 145.935
QB50P2 02 Jul 10:36:34 10:40:40 50° 75° (ENE) 10:44:48 145.880/145.840
HUMSAT D 02 Jul 10:37:54 10:41:54 45° 99° (E) 10:45:57 437.325/437.525
POPSAT HIP 1 02 Jul 10:37:56 10:42:02 50° 75° (ENE) 10:46:09 437.405
ESTCUBE 1 02 Jul 10:38:08 10:39:40 12° 90° (E) 10:41:29 437.505/2401.250
COMPASS 1 02 Jul 10:41:40 10:43:43 13° 291° (WNW) 10:45:36 437.405
UWE-3 02 Jul 10:42:08 10:46:09 45° 285° (WNW) 10:50:14 435.000/436.395/437.385
ANTELSAT 02 Jul 10:45:48 10:49:59 48° 260° (W) 10:54:07 437.575/2403.000
DELFI C3 02 Jul 10:48:26 10:52:14 38° 286° (WNW) 10:55:59 145.870
TIGRISAT 02 Jul 10:59:33 11:03:31 34° 263° (W) 11:07:23 435.000
VELOX 1 02 Jul 11:02:55 11:07:00 36° 98° (E) 11:11:04 145.980
50 SAT 02 Jul 11:08:18 11:12:07 51° 100° (E) 11:15:56 437.505
QB50P1 02 Jul 11:17:12 11:21:21 51° 260° (W) 11:25:31 145.935-145.965
DX 1 02 Jul 11:21:24 11:25:44 66° 285° (WNW) 11:30:00 434.975-435.025
CUBEBUG 2 02 Jul 11:24:24 11:26:14 12° 291° (WNW) 11:27:52 437.445
NANOSAT C BR1 02 Jul 11:32:44 11:36:37 34° 263° (W) 11:40:27 145.865
ZACube-1 02 Jul 11:36:37 11:39:02 15° 290° (WNW) 11:41:18 437.345
